map of LBU home
Great Circle Mapper logo
LBU - Airport
Location
City:  Labuan, Sabah, Borneo, Malaysia
ICAO / IATA:WBKL / LBU

Details
Type:Airport (Aerodrome, Airfield)
Use:Public/Civil, Military, International (customs port of entry)
Latitude:518'02"N (5.300683)
Longitude:11515'01"E (115.250181)
Datum:WGS 1984
Elevation:101 ft (31 m)
Variation:0.05W (WMM2015 magnetic declination)
-0.08 annual change
Runways:1
Longest:7546 × 148 ft (2300 × 45 m), paved

Time
Time Zone:UTC+8
Local Time:

Weather
METAR:WBKL 281200Z 03010KT 350V060 9999 FEW012 BKN300 27/24 Q1009
TAF:WBKL 280500Z 2806/0106 08006KT 9999 FEW012 SCT140 BKN290

Related Locations
Nearby:
Farthest:SWUY: 12390 mi / 19939 km
Coari [Urucu], AM, BR

Find:

   beyond  
but within

Other Information
Maps:
NOTAMs:
Links:
Sources:

  
flag of Malaysia   

Sectional Chart

Flight Planning
at skyvector.com

Satellite Image

Google Maps Satellite View

 

Copyright © 2004-2015 Karl L. Swartz. All rights reserved.
The Great Circle Mapper name and logo are trademarks of the Great Circle Mapper.
All other trademarks mentioned herein belong to their respective owners.
Please see credits for attibutions and further copyright information.

  Follow gcmap on Facebook Follow gcmap on Twitter Follow gcmap on Google+

hCard Microformat

Geo Microformat